• In Kazakhstan
  • List of Countries
  • For 7 days
  • Water Temperature
  • Satellite Maps
  • Weather Map
  • News
  • Weather Widgets
  • user-avatar
    Login

    Hourly Weather Sidi Bu-l-Abbas

    Today, 21 January, Monday

    Time Temperature Precipitation Wind Pressure Humidity
    00:00 +8°C° 1.5 mm 6 mps 719 mmHg 87%
    01:00 +8°C° 0.2 mm 5 mps 719 mmHg 85%
    02:00 +8°C° 0.2 mm 4 mps 719 mmHg 83%
    03:00 +8°C° 0.2 mm 4 mps 719 mmHg 81%
    04:00 +7°C° 0 mm 4 mps 719 mmHg 81%
    05:00 +8°C° 0 mm 3 mps 719 mmHg 81%
    06:00 +7°C° 0 mm 3 mps 719 mmHg 81%
    07:00 +8°C° 0 mm 3 mps 720 mmHg 78%
    08:00 +7°C° 0 mm 4 mps 720 mmHg 75%
    09:00 +7°C° 0 mm 4 mps 720 mmHg 73%
    10:00 +8°C° 0.1 mm 4 mps 720 mmHg 69%
    11:00 +8°C° 0.1 mm 4 mps 721 mmHg 66%
    12:00 +9°C° 0.1 mm 5 mps 721 mmHg 63%
    13:00 +8°C° 0.1 mm 4 mps 721 mmHg 63%
    14:00 +8°C° 0.1 mm 4 mps 720 mmHg 63%
    15:00 +8°C° 0.1 mm 4 mps 720 mmHg 64%
    16:00 +9°C° 0 mm 3 mps 721 mmHg 67%
    17:00 +8°C° 0 mm 3 mps 721 mmHg 70%
    18:00 +8°C° 0 mm 2 mps 721 mmHg 74%
    19:00 +7°C° 0 mm 2 mps 721 mmHg 75%
    20:00 +7°C° 0 mm 2 mps 721 mmHg 77%
    21:00 +6°C° 0 mm 2 mps 721 mmHg 78%
    22:00 +6°C° 0 mm 2 mps 722 mmHg 76%
    23:00 +6°C° 0 mm 2 mps 722 mmHg 74%

    Tomorrow, 22 January, Tuesday

    Time Temperature Precipitation Wind Pressure Humidity
    00:00 +6°C° 0 mm 2 mps 722 mmHg 72%
    01:00 +5°C° 0.2 mm 3 mps 722 mmHg 73%
    02:00 +5°C° 0.2 mm 3 mps 722 mmHg 74%
    03:00 +5°C° 0.2 mm 3 mps 722 mmHg 75%
    04:00 +5°C° 0 mm 3 mps 721 mmHg 75%
    05:00 +4°C° 0 mm 3 mps 721 mmHg 75%
    06:00 +4°C° 0 mm 3 mps 721 mmHg 75%
    07:00 +5°C° 0 mm 3 mps 721 mmHg 72%
    08:00 +6°C° 0 mm 4 mps 722 mmHg 68%
    09:00 +6°C° 0 mm 5 mps 722 mmHg 65%
    10:00 +7°C° 0 mm 6 mps 721 mmHg 65%
    11:00 +8°C° 0 mm 7 mps 721 mmHg 64%
    12:00 +7°C° 0 mm 9 mps 721 mmHg 64%
    13:00 +8°C° 0.1 mm 10 mps 720 mmHg 63%
    14:00 +8°C° 0.1 mm 11 mps 719 mmHg 61%
    15:00 +8°C° 0.1 mm 12 mps 718 mmHg 60%
    16:00 +8°C° 0.1 mm 11 mps 718 mmHg 66%
    17:00 +7°C° 0.1 mm 11 mps 718 mmHg 72%
    18:00 +6°C° 0.1 mm 11 mps 717 mmHg 78%
    19:00 +6°C° 0.8 mm 11 mps 717 mmHg 81%
    20:00 +5°C° 0.8 mm 12 mps 717 mmHg 84%
    21:00 +5°C° 0.8 mm 12 mps 717 mmHg 87%
    22:00 +5°C° 3 mm 13 mps 717 mmHg 88%
    23:00 +7°C° 3 mm 13 mps 717 mmHg 89%

    Day after tomorrow, 23 January, Wednesday

    Time Temperature Precipitation Wind Pressure Humidity
    00:00 +7°C° 3 mm 13 mps 716 mmHg 90%
    01:00 +7°C° 3.6 mm 13 mps 716 mmHg 90%
    02:00 +5°C° 3.6 mm 13 mps 716 mmHg 90%
    03:00 +5°C° 3.6 mm 12 mps 716 mmHg 91%
    04:00 +6°C° 2.5 mm 11 mps 716 mmHg 89%
    05:00 +6°C° 2.5 mm 10 mps 716 mmHg 87%
    06:00 +6°C° 2.5 mm 8 mps 716 mmHg 86%
    07:00 +7°C° 0.7 mm 8 mps 716 mmHg 85%
    08:00 +7°C° 0.7 mm 9 mps 717 mmHg 84%
    09:00 +7°C° 0.7 mm 9 mps 717 mmHg 83%
    10:00 +7°C° 0.1 mm 10 mps 717 mmHg 81%
    11:00 +8°C° 0.1 mm 12 mps 716 mmHg 79%
    12:00 +8°C° 0.1 mm 14 mps 716 mmHg 77%
    13:00 +8°C° 0 mm 14 mps 716 mmHg 73%
    14:00 +9°C° 0 mm 15 mps 715 mmHg 69%
    15:00 +9°C° 0 mm 15 mps 714 mmHg 65%
    16:00 +8°C° 0 mm 15 mps 715 mmHg 70%
    17:00 +8°C° 0 mm 14 mps 715 mmHg 74%
    18:00 +7°C° 0 mm 13 mps 715 mmHg 79%
    19:00 +7°C° 0.1 mm 13 mps 715 mmHg 81%
    20:00 +7°C° 0.1 mm 13 mps 715 mmHg 82%
    21:00 +8°C° 0.1 mm 13 mps 715 mmHg 84%
    22:00 +8°C° 0.1 mm 13 mps 715 mmHg 84%
    23:00 +8°C° 0.1 mm 14 mps 715 mmHg 85%

    24 January, Thursday

    Time Temperature Precipitation Wind Pressure Humidity
    00:00 +8°C° 0.1 mm 14 mps 715 mmHg 85%
    01:00 +8°C° 0.2 mm 13 mps 714 mmHg 86%
    02:00 +8°C° 0.2 mm 13 mps 714 mmHg 86%
    03:00 +8°C° 0.2 mm 12 mps 714 mmHg 86%
    04:00 +8°C° 0.5 mm 12 mps 714 mmHg 88%
    05:00 +8°C° 0.5 mm 12 mps 713 mmHg 89%
    06:00 +8°C° 0.5 mm 12 mps 713 mmHg 90%
    07:00 +8°C° 0.9 mm 12 mps 713 mmHg 89%
    08:00 +8°C° 0.9 mm 12 mps 714 mmHg 88%
    09:00 +8°C° 0.9 mm 12 mps 714 mmHg 87%
    10:00 +8°C° 1.3 mm 11 mps 714 mmHg 85%
    11:00 +8°C° 1.3 mm 10 mps 714 mmHg 82%
    12:00 +8°C° 1.3 mm 10 mps 714 mmHg 80%
    13:00 +7°C° 0.9 mm 9 mps 714 mmHg 81%
    14:00 +6°C° 0.9 mm 9 mps 714 mmHg 81%
    15:00 +5°C° 0.9 mm 9 mps 713 mmHg 82%
    16:00 +5°C° 1.3 mm 7 mps 714 mmHg 78%
    17:00 +5°C° 1.3 mm 6 mps 715 mmHg 75%
    18:00 +5°C° 1.3 mm 4 mps 715 mmHg 71%
    19:00 +5°C° 0.2 mm 3 mps 716 mmHg 70%
    20:00 +5°C° 0.2 mm 2 mps 717 mmHg 68%
    21:00 +6°C° 0.2 mm 1 mps 718 mmHg 67%
    22:00 +5°C° 0 mm 1 mps 719 mmHg 68%
    23:00 +5°C° 0 mm 1 mps 719 mmHg 69%

    25 January, Friday

    Time Temperature Precipitation Wind Pressure Humidity
    00:00 +3°C° 0 mm 0 mps 719 mmHg 70%
    01:00 +4°C° 0 mm 1 mps 719 mmHg 69%
    02:00 +4°C° 0 mm 1 mps 719 mmHg 69%
    03:00 +3°C° 0 mm 2 mps 719 mmHg 68%
    04:00 +2°C° 0 mm 2 mps 720 mmHg 69%
    05:00 +2°C° 0 mm 2 mps 720 mmHg 69%
    06:00 +2°C° 0 mm 2 mps 720 mmHg 69%
    07:00 +3°C° 0 mm 2 mps 721 mmHg 67%
    08:00 +4°C° 0 mm 2 mps 721 mmHg 65%
    09:00 +5°C° 0 mm 2 mps 722 mmHg 64%
    10:00 +6°C° 0 mm 2 mps 722 mmHg 59%
    11:00 +8°C° 0 mm 2 mps 722 mmHg 54%
    12:00 +10°C° 0 mm 1 mps 722 mmHg 49%
    13:00 +10°C° 0 mm 1 mps 722 mmHg 46%
    14:00 +11°C° 0 mm 1 mps 722 mmHg 42%
    15:00 +12°C° 0 mm 1 mps 722 mmHg 38%
    16:00 +10°C° 0 mm 1 mps 722 mmHg 44%
    17:00 +9°C° 0 mm 1 mps 722 mmHg 50%
    18:00 +8°C° 0 mm 1 mps 722 mmHg 56%
    19:00 +7°C° 0 mm 1 mps 722 mmHg 58%
    20:00 +7°C° 0 mm 1 mps 722 mmHg 60%
    21:00 +6°C° 0 mm 1 mps 723 mmHg 62%
    22:00 +6°C° 0 mm 1 mps 723 mmHg 60%
    23:00 +6°C° 0 mm 1 mps 723 mmHg 59%

    26 January, Saturday

    Time Temperature Precipitation Wind Pressure Humidity
    00:00 +6°C° 0 mm 1 mps 722 mmHg 57%
    01:00 +5°C° 0 mm 1 mps 722 mmHg 56%
    02:00 +5°C° 0 mm 1 mps 722 mmHg 55%
    03:00 +5°C° 0 mm 1 mps 722 mmHg 54%
    04:00 +5°C° 0 mm 1 mps 722 mmHg 54%
    05:00 +4°C° 0 mm 1 mps 722 mmHg 54%
    06:00 +4°C° 0 mm 1 mps 722 mmHg 54%
    07:00 +6°C° 0 mm 1 mps 722 mmHg 49%
    08:00 +8°C° 0 mm 1 mps 723 mmHg 44%
    09:00 +10°C° 0 mm 1 mps 723 mmHg 39%
    10:00 +11°C° 0 mm 1 mps 723 mmHg 34%
    11:00 +12°C° 0 mm 1 mps 723 mmHg 30%
    12:00 +13°C° 0 mm 1 mps 723 mmHg 25%
    13:00 +13°C° 0 mm 1 mps 722 mmHg 25%
    14:00 +14°C° 0 mm 1 mps 722 mmHg 26%
    15:00 +14°C° 0 mm 1 mps 721 mmHg 26%
    16:00 +12°C° 0 mm 1 mps 721 mmHg 34%
    17:00 +11°C° 0 mm 1 mps 720 mmHg 42%
    18:00 +8°C° 0 mm 0 mps 720 mmHg 50%
    19:00 +9°C° 0 mm 1 mps 720 mmHg 47%
    20:00 +9°C° 0 mm 1 mps 720 mmHg 44%
    21:00 +8°C° 0 mm 2 mps 720 mmHg 41%
    22:00 +8°C° 0 mm 2 mps 720 mmHg 40%
    23:00 +7°C° 0 mm 2 mps 719 mmHg 38%
    Show more